AirNav   Duncan Aviation - Near you to keep you flying
 
 1147 users online  

4OR7 Lusardi Field Airport
Salem, Oregon, USA

GOING TO SALEM?


FAA INFORMATION EFFECTIVE 26 JANUARY 2023

Location

FAA Identifier: 4OR7
Lat/Long: 44-59-07.4320N 122-56-46.3400W
44-59.123867N 122-56.772333W
44.9853978,-122.9462056
(estimated)
Elevation: 205 ft. / 62 m (estimated)
Variation: 19E (1985)
From city: 7 miles NE of SALEM, OR
Time zone: UTC -8 (UTC -7 during Daylight Saving Time)
Zip code: 97305

Airport Operations

Airport use: Private use. Permission required prior to landing
Activation date: 03/1976
Control tower: no
ARTCC: SEATTLE CENTER
FSS: MC MINNVILLE FLIGHT SERVICE STATION
Attendance: UNATNDD
Wind indicator: yes
Segmented circle: no
Lights: FOR RY LIGHTS CALL 503-931-0404.

Airport Communications

WX ASOS at SLE (5 nm SW): 124.55 (503-371-1062)
WX ASOS at MMV (15 nm NW): 135.675 (503-434-9153)
WX ASOS at UAO (17 nm NE): PHONE 503-678-3011

Nearby radio navigation aids

VOR radial/distance  VOR name  Freq  Var
UBGr155/22.1NEWBERG VOR/DME117.4021E
CVOr009/32.7CORVALLIS VOR/DME115.4018E

 
NDB name  Hdg/Dist  Freq  Var  ID
TURNO344/8.326617ESL ... .-..
LEWISBURG017/26.222515ELWG .-.. .-- --.
BANKS158/38.935616EPND .--. -. -..

Airport Services

Runway Information

Runway 17/35

Dimensions: 2200 x 60 ft. / 671 x 18 m
Surface: turf
Runway edge lights: low intensity
RUNWAY 17  RUNWAY 35
Traffic pattern: leftleft
Obstructions: trees, lighted, 600 ft. from runwaypline, lighted, 800 ft. from runway

Airport Ownership and Management from official FAA records

Ownership: Privately-owned
Owner: ROBERT LUSARDI
5605 IBEX ST NE
SALEM, OR 97305
Phone 503-399-7123
Manager: ROBERT LUSARDI
5605 IBEX ST NE
SALEM, OR 97305
Phone 503-319-2370

Airport Operational Statistics

Aircraft based on the field: 8
Single engine airplanes: 8
    

Additional Remarks

RY 35 PREFERRED CALM WIND RY.
FOR CD CTC SEATTLE ARTCC AT 253-351-3694.

Instrument Procedures

There are no published instrument procedures at 4OR7.

Some nearby airports with instrument procedures:

KSLE - McNary Field Airport (5 nm SW)
KMMV - Mc Minnville Municipal Airport (15 nm NW)
KUAO - Aurora State Airport (17 nm NE)
S12 - Albany Municipal Airport (21 nm S)
KCVO - Corvallis Municipal Airport (33 nm SW)
 
Loc | Ops | Rwys | IFR | FBO | Links
Com | Nav | Svcs | Stats | Notes
Area around 4OR7 (Lusardi Field Airport)
 
Road maps at: MapQuest Bing Google
 
Aerial photo
WARNING: Photo may not be current or correct
Aerial photo of 4OR7 (Lusardi Field Airport)
Do you have a better or more recent aerial photo of Lusardi Field Airport that you would like to share? If so, please send us your photo.

 
Sectional chart

 
Airport distance calculator
Flying to Lusardi Field Airport? Find the distance to fly.

From to 4OR7

Sunrise and sunset
Times for 03-Feb-2023
 Local
(UTC-8)
 Zulu
(UTC)
Morning civil twilight06:5914:59
Sunrise07:3015:30
Sunset17:2101:21
Evening civil twilight17:5201:52

Current date and time
Zulu (UTC)  03-Feb-2023 23:36:27
Local (UTC-8)  03-Feb-2023 15:36:27
 
METAR
KSLE 
6nm SW 
032256Z AUTO 19019G27KT 10SM -RA SCT050 BKN095 12/06 A3003 RMK AO2 PK WND 20028/2158 RAB52 SLP169 P0000 T01170061
KMMV 
15nm NW 
032153Z AUTO 20015G24KT 5SM -RA FEW037 BKN048 OVC055 10/06 A2999 RMK AO2 PK WND 19026/2128 RAB44 SLP156 P0001 T01000061
KUAO 
18nm NE 
032253Z 21007G16KT 10SM -RA FEW029 BKN035 OVC060 11/06 A3002 RMK AO2 PK WND 20027/2203 RAB38 SLP166 P0000 T01110061
TAF
KSLE 
6nm SW 
031720Z 0318/0418 18019G29KT P6SM -RA OVC045 WS020/19045KT FM032100 19017G27KT P6SM -RA BKN040 FM040100 19014KT P6SM -RA OVC040 FM040900 18010KT P6SM -RA SCT025 OVC040 FM041500 16005KT P6SM OVC060
KUAO 
18nm NE 
031720Z 0318/0418 19017G27KT P6SM -RA OVC045 WS020/19045KT FM032100 20017KT P6SM -RA BKN035 FM040900 18011KT P6SM -RA OVC030 FM041200 18008KT P6SM OVC035 FM041500 13005KT P6SM OVC050
NOTAMs
Click for the latest NOTAMs
NOTAMs are issued by the DoD/FAA and will open in a separate window not controlled by AirNav.

 

 
 

Would you like to see your business listed on this page?

 If your business provides an interesting product or service to pilots, flight crews, aircraft, or users of the Lusardi Field Airport, you should consider listing it here.  To start the listing process, click on the button below
 
Add a business
 

Other Pages about Lusardi Field Airport

Update a link
 
Copyright © AirNav, LLC. All rights reserved. Privacy Policy  Contact